Mercury, NV

6:23 PM PDT on May 24, 2017 (GMT -0700)
Mercury

Weather History for KDRA - January, 2013

Change the Weather History Date:

Monday, January 14, 2013

  Actual Average Record
Temperature  
Mean Temperature 25 °F 44 °F  
Max Temperature 34 °F 55 °F 70 °F (2009)
Min Temperature 16 °F 32 °F 16 °F (2013)
Degree Days  
Heating Degree Days 40    
Cooling Degree Days 0    
Moisture  
Dew Point -3 °F    
Average Humidity 28    
Maximum Humidity 41    
Minimum Humidity 9    
Precipitation  
Precipitation 0.00 in 0.02 in 0.09 in (2002)
Month to date precipitation 0.37  
Year to date precipitation 0.37  
Sea Level Pressure  
Sea Level Pressure 30.35 in    
Wind  
Wind Speed 14 mph (NE)    
Max Wind Speed 22 mph    
Max Gust Speed 30 mph    
Visibility 10 miles    
Events      
T = Trace of Precipitation, MM = Missing Value Source: NWS Daily Summary

Daily Weather History Graph

Daily Weather History Graph

Search for Another Location

Airport or City:

Trip Planner

Search our weather history database for the weather conditions in past years. The results will help you decide how hot, cold, wet, or windy it might be!

Date:

Astronomy

Jan. 14, 2013 Rise Set
Actual Time 6:55 AM PST 4:51 PM PST
Civil Twilight 6:27 AM PST 5:19 PM PST
Nautical Twilight 5:55 AM PST 5:51 PM PST
Astronomical Twilight 5:24 AM PST 6:22 PM PST
Moon 8:38 AM PST (1/14) 8:34 PM PST (1/14)
Length of Visible Light 10h 52m
Length of Day
9h 55m
Waxing Crescent, 12% of the Moon is Illuminated
Jan 14
Waxing Crescent
Jan 18
First Quarter
Jan 26
Full
Feb 3
Last Quarter
Feb 9
New

Hourly Weather History & Observations

Time (PST) Temp. Windchill Dew Point Humidity Pressure Visibility Wind Dir Wind Speed Gust Speed Precip Events Conditions
12:52 AM 19.0 °F 7.5 °F -2.9 °F 38% 30.26 in 10.0 mi NE 10.4 mph - N/A   Clear
1:52 AM 19.0 °F 5.6 °F -2.9 °F 38% 30.27 in 10.0 mi NE 13.8 mph - N/A   Clear
2:52 AM 18.0 °F 3.1 °F -2.9 °F 40% 30.27 in 10.0 mi NE 16.1 mph - N/A   Clear
3:52 AM 17.1 °F 1.5 °F -2.9 °F 41% 30.27 in 10.0 mi NE 17.3 mph - N/A   Clear
4:52 AM 17.1 °F 2.0 °F -2.9 °F 41% 30.27 in 10.0 mi NE 16.1 mph - N/A   Clear
6:52 AM 17.1 °F 1.0 °F -2.9 °F 41% 30.33 in 10.0 mi NE 18.4 mph - N/A   Clear
7:52 AM 19.0 °F 4.5 °F -4.0 °F 36% 30.35 in 10.0 mi NNE 16.1 mph - N/A   Clear
8:52 AM 21.9 °F 6.2 °F -4.0 °F 32% 30.36 in 10.0 mi NNE 21.9 mph - N/A   Clear
9:52 AM 25.0 °F 13.1 °F -4.0 °F 28% 30.37 in 10.0 mi NNE 13.8 mph - N/A   Clear
10:52 AM 28.0 °F 18.1 °F -6.0 °F 23% 30.36 in 10.0 mi NE 11.5 mph 17.3 mph N/A   Clear
11:52 AM 30.9 °F 22.8 °F -5.1 °F 21% 30.32 in 10.0 mi NE 9.2 mph 19.6 mph N/A   Clear
12:52 PM 30.9 °F 21.7 °F -5.1 °F 21% 30.32 in 10.0 mi NE 11.5 mph 20.7 mph N/A   Clear
1:52 PM 33.1 °F 22.2 °F -5.1 °F 19% 30.32 in 10.0 mi NNE 17.3 mph - N/A   Clear
2:52 PM 33.1 °F 21.5 °F -5.1 °F 19% 30.33 in 10.0 mi NNE 19.6 mph 29.9 mph N/A   Clear
3:52 PM 32.0 °F 20.8 °F -5.1 °F 20% 30.36 in 10.0 mi NNE 17.3 mph 25.3 mph N/A   Clear
4:52 PM 28.9 °F 18.2 °F -5.1 °F 23% 30.39 in 10.0 mi NNE 13.8 mph - N/A   Clear
5:52 PM 27.0 °F 16.7 °F -2.0 °F 29% 30.42 in 10.0 mi ENE 11.5 mph - N/A   Clear
6:52 PM 27.0 °F 16.7 °F -2.9 °F 27% 30.43 in 10.0 mi NNE 11.5 mph - N/A   Clear
7:52 PM 26.1 °F 16.8 °F -2.9 °F 28% 30.45 in 10.0 mi NE 9.2 mph - N/A   Clear
8:52 PM 24.1 °F 11.5 °F -2.0 °F 32% 30.43 in 10.0 mi NNE 15.0 mph - N/A   Clear
9:52 PM 24.1 °F 11.5 °F -2.0 °F 32% 30.41 in 10.0 mi NNE 15.0 mph - N/A   Clear
10:52 PM 24.1 °F 11.0 °F -0.9 °F 34% 30.40 in 10.0 mi NE 16.1 mph - N/A   Clear
11:52 PM 24.1 °F 11.5 °F -0.9 °F 34% 30.42 in 10.0 mi NNE 15.0 mph - N/A   Clear